TimeEST,TemperatureF,Dew PointF,Humidity,Sea Level PressureIn,VisibilityMPH,Wind Direction,Wind SpeedMPH,Gust SpeedMPH,PrecipitationIn,Events,Conditions,WindDirDegrees,DateUTC
12:53 AM,24.1,14.0,65,30.35,10.0,West,8.1,-,0.00,Snow,Light Snow,260,2013-01-15 05:53:00
1:25 AM,23.0,14.0,68,30.33,10.0,West,15.0,24.2,0.00,,Overcast,280,2013-01-15 06:25:00
1:53 AM,23.0,12.9,65,30.37,10.0,West,17.3,21.9,0.00,,Overcast,270,2013-01-15 06:53:00
2:53 AM,21.9,12.9,68,30.39,10.0,WSW,10.4,-,N/A,,Overcast,250,2013-01-15 07:53:00
3:45 AM,21.2,10.4,63,30.35,10.0,West,12.7,-,N/A,,Overcast,280,2013-01-15 08:45:00
4:53 AM,19.0,10.0,68,30.39,10.0,West,6.9,-,N/A,,Mostly Cloudy,270,2013-01-15 09:53:00
5:53 AM,16.0,9.0,74,30.38,10.0,Calm,Calm,-,N/A,,Clear,0,2013-01-15 10:53:00
6:53 AM,14.0,10.0,84,30.38,10.0,Calm,Calm,-,N/A,,Clear,0,2013-01-15 11:53:00
7:53 AM,12.9,8.1,81,30.38,10.0,Calm,Calm,-,N/A,,Scattered Clouds,0,2013-01-15 12:53:00
8:53 AM,14.0,9.0,80,30.39,9.0,SSE,3.5,-,N/A,,Scattered Clouds,160,2013-01-15 13:53:00
9:53 AM,19.9,10.0,65,30.38,10.0,SSW,3.5,-,N/A,,Partly Cloudy,200,2013-01-15 14:53:00
10:53 AM,23.0,12.0,63,30.37,10.0,SSW,5.8,-,N/A,,Partly Cloudy,210,2013-01-15 15:53:00
11:53 AM,26.1,14.0,60,30.35,10.0,WSW,8.1,-,N/A,,Scattered Clouds,240,2013-01-15 16:53:00
12:53 PM,27.0,15.1,61,30.32,10.0,South,9.2,-,N/A,,Mostly Cloudy,190,2013-01-15 17:53:00
1:26 PM,26.6,15.8,64,30.26,10.0,SW,5.8,-,N/A,,Mostly Cloudy,230,2013-01-15 18:26:00
1:53 PM,27.0,15.1,61,30.28,10.0,South,6.9,-,N/A,,Mostly Cloudy,180,2013-01-15 18:53:00
2:53 PM,28.0,15.1,58,30.29,10.0,SSW,8.1,18.4,N/A,,Mostly Cloudy,200,2013-01-15 19:53:00
3:53 PM,28.0,16.0,61,30.26,10.0,SSW,5.8,-,N/A,,Scattered Clouds,210,2013-01-15 20:53:00
4:53 PM,28.0,17.1,63,30.25,10.0,Variable,6.9,-,N/A,,Mostly Cloudy,0,2013-01-15 21:53:00
5:53 PM,26.1,18.0,71,30.23,10.0,Variable,5.8,-,N/A,,Mostly Cloudy,0,2013-01-15 22:53:00
6:53 PM,25.0,18.0,75,30.21,10.0,South,4.6,-,N/A,,Scattered Clouds,170,2013-01-15 23:53:00
7:53 PM,24.1,17.1,75,30.20,10.0,South,4.6,-,N/A,,Clear,180,2013-01-16 00:53:00
8:53 PM,23.0,17.1,78,30.18,10.0,Variable,4.6,-,N/A,,Clear,0,2013-01-16 01:53:00
9:53 PM,24.1,16.0,71,30.14,10.0,SSE,4.6,-,N/A,,Clear,160,2013-01-16 02:53:00
10:53 PM,24.1,16.0,71,30.11,10.0,South,4.6,-,N/A,,Clear,180,2013-01-16 03:53:00
11:53 PM,21.9,16.0,78,30.08,10.0,SSE,5.8,-,N/A,,Clear,160,2013-01-16 04:53:00